Weather History for KEWN - November, 2013

Change the Weather History Date:

Sunday, November 17, 2013

  Actual Average Record
Temperature  
Mean Temperature 65 °F 55 °F  
Max Temperature 77 °F 66 °F 81 °F (1957)
Min Temperature 52 °F 44 °F 22 °F (1967)
Degree Days  
Heating Degree Days 0 11  
Month to date heating degree days 160 147  
Since 1 July heating degree days 236 264  
Cooling Degree Days 0 0  
Month to date cooling degree days 11 14  
Year to date cooling degree days 2001 1899  
Growing Degree Days 14 (Base 50)    
Moisture  
Dew Point 58 °F    
Average Humidity 82    
Maximum Humidity 100    
Minimum Humidity 64    
Precipitation  
Precipitation 0.01 in 0.12 in 0.77 in (2002)
Month to date precipitation 1.38 1.89  
Year to date precipitation 37.21 47.84  
Snow  
Snow 0.00 in - - ()
Month to date snowfall T  
Since 1 July snowfall T  
Snow Depth 0.00 in    
Sea Level Pressure  
Sea Level Pressure 30.13 in    
Wind  
Wind Speed 3 mph (South)    
Max Wind Speed 15 mph    
Max Gust Speed 21 mph    
Visibility 5 miles    
Events Fog , Rain    
T = Trace of Precipitation, MM = Missing Value Source: NWS Daily Summary

Daily Weather History Graph

Daily Weather History Graph

Search for Another Location

Airport or City:

Trip Planner

Search our weather history database for the weather conditions in past years. The results will help you decide how hot, cold, wet, or windy it might be!

Date:

Astronomy

Nov. 17, 2013 Rise Set
Actual Time 6:44 AM EST 5:01 PM EST
Civil Twilight 6:17 AM EST 5:28 PM EST
Nautical Twilight 5:47 AM EST 5:58 PM EST
Astronomical Twilight 5:17 AM EST 6:29 PM EST
Moon 5:16 PM EST (11/17) 6:37 AM EST (11/17)
Length of Visible Light 11h 10m
Length of Day
10h 16m
Full, 100% of the Moon is Illuminated
Nov 17
Full
Nov 25
Last Quarter
Dec 2
New
Dec 9
First Quarter
Dec 17
Full

Hourly Weather History & Observations

Time (EST) Temp. Dew Point Humidity Pressure Visibility Wind Dir Wind Speed Gust Speed Precip Events Conditions
12:54 AM 57.0 °F 55.0 °F 93% 30.21 in 10.0 mi Calm Calm - N/A   Overcast
1:13 AM 55.4 °F 55.4 °F 100% 30.20 in 8.0 mi Calm Calm - N/A   Scattered Clouds
1:27 AM 55.4 °F 53.6 °F 94% 30.20 in 1.8 mi Calm Calm - N/A   Clear
1:40 AM 55.4 °F 53.6 °F 94% 30.20 in 0.5 mi Calm Calm - N/A Fog Fog
1:43 AM 55.4 °F 53.6 °F 94% 30.20 in 0.5 mi Calm Calm - N/A Fog Fog
1:54 AM 54.0 °F 52.0 °F 93% 30.19 in 0.5 mi North 3.5 mph - N/A Fog Fog
1:59 AM 53.6 °F 53.6 °F 100% 30.20 in 1.0 mi Calm Calm - N/A   Mist
2:01 AM 53.6 °F 53.6 °F 100% 30.20 in 2.0 mi Calm Calm - N/A   Partly Cloudy
2:08 AM 55.4 °F 53.6 °F 94% 30.20 in 6.0 mi Calm Calm - N/A   Partly Cloudy
2:41 AM 55.4 °F 53.6 °F 94% 30.19 in 1.8 mi Calm Calm - N/A   Clear
2:54 AM 55.0 °F 54.0 °F 96% 30.18 in 2.0 mi Calm Calm - N/A   Clear
3:02 AM 55.4 °F 53.6 °F 94% 30.18 in 3.0 mi Calm Calm - N/A   Clear
3:13 AM 53.6 °F 53.6 °F 100% 30.16 in 2.5 mi Calm Calm - N/A   Clear
3:23 AM 53.6 °F 53.6 °F 100% 30.16 in 5.0 mi Calm Calm - N/A   Clear
3:33 AM 53.6 °F 51.8 °F 94% 30.17 in 1.8 mi Calm Calm - N/A   Clear
3:37 AM 53.6 °F 51.8 °F 94% 30.17 in 0.5 mi Calm Calm - N/A Fog Fog
3:54 AM 53.1 °F 52.0 °F 96% 30.16 in 0.5 mi Calm Calm - N/A Fog Fog
3:57 AM 53.6 °F 51.8 °F 94% 30.16 in 1.0 mi Calm Calm - N/A   Mist
4:00 AM 53.6 °F 51.8 °F 94% 30.16 in 0.8 mi Calm Calm - N/A   Mist
4:08 AM 53.6 °F 51.8 °F 94% 30.16 in 0.2 mi Calm Calm - N/A Fog Fog
4:27 AM 53.6 °F 51.8 °F 94% 30.16 in 0.8 mi Calm Calm - N/A   Overcast
4:40 AM 53.6 °F 51.8 °F 94% 30.16 in 1.8 mi Calm Calm - N/A   Overcast
4:54 AM 54.0 °F 53.1 °F 97% 30.15 in 3.0 mi Calm Calm - N/A   Overcast
5:15 AM 53.6 °F 53.6 °F 100% 30.15 in 2.5 mi Calm Calm - N/A   Scattered Clouds
5:28 AM 53.6 °F 53.6 °F 100% 30.15 in 3.0 mi Calm Calm - N/A   Mostly Cloudy
5:54 AM 55.0 °F 54.0 °F 96% 30.16 in 7.0 mi Calm Calm - N/A   Overcast
6:54 AM 55.9 °F 55.0 °F 97% 30.17 in 4.0 mi Calm Calm - N/A   Overcast
7:12 AM 55.4 °F 55.4 °F 100% 30.17 in 2.0 mi Calm Calm - N/A   Overcast
7:23 AM 57.2 °F 55.4 °F 94% 30.17 in 1.5 mi Calm Calm - N/A   Overcast
7:39 AM 57.2 °F 55.4 °F 94% 30.17 in 0.5 mi Calm Calm - N/A Fog Fog
7:54 AM 57.0 °F 55.9 °F 96% 30.17 in 0.5 mi Calm Calm - N/A Fog Fog
8:54 AM 60.1 °F 57.9 °F 93% 30.18 in 0.2 mi Calm Calm - N/A Fog Fog
9:54 AM 60.1 °F 60.1 °F 100% 30.19 in 0.2 mi Calm Calm - N/A Fog Fog
10:27 AM 60.8 °F 60.8 °F 100% 30.19 in 1.0 mi North 3.5 mph - N/A   Overcast
10:43 AM 62.6 °F 60.8 °F 94% 30.18 in 3.0 mi Calm Calm - N/A   Overcast
10:54 AM 62.1 °F 60.1 °F 93% 30.18 in 6.0 mi Calm Calm - N/A   Overcast
11:13 AM 64.4 °F 60.8 °F 88% 30.16 in 7.0 mi Calm Calm - N/A   Overcast
11:24 AM 64.4 °F 62.6 °F 94% 30.15 in 9.0 mi Calm Calm - N/A   Clear
11:54 AM 71.1 °F 63.0 °F 75% 30.14 in 10.0 mi Calm Calm - N/A   Clear
12:54 PM 73.0 °F 63.0 °F 71% 30.11 in 10.0 mi Calm Calm - N/A   Clear
1:54 PM 75.0 °F 63.0 °F 66% 30.08 in 10.0 mi East 4.6 mph - N/A   Clear
2:54 PM 75.9 °F 63.0 °F 64% 30.05 in 10.0 mi East 6.9 mph - N/A   Clear
3:54 PM 73.9 °F 62.1 °F 66% 30.04 in 10.0 mi ESE 4.6 mph - N/A   Partly Cloudy
4:54 PM 71.1 °F 63.0 °F 75% 30.06 in 10.0 mi Calm Calm - N/A   Overcast
5:54 PM 71.1 °F 64.9 °F 81% 30.06 in 10.0 mi South 4.6 mph - N/A   Overcast
6:54 PM 70.0 °F 66.0 °F 87% 30.06 in 10.0 mi South 6.9 mph - N/A   Overcast
7:54 PM 70.0 °F 66.9 °F 90% 30.03 in 10.0 mi South 9.2 mph - N/A   Scattered Clouds
8:07 PM 71.6 °F 66.2 °F 83% 30.03 in 10.0 mi SSW 13.8 mph 20.7 mph N/A   Mostly Cloudy
8:25 PM 69.8 °F 66.2 °F 88% 30.03 in 10.0 mi South 12.7 mph 18.4 mph 0.00 in Rain Light Rain
8:50 PM 69.8 °F 66.2 °F 88% 30.02 in 10.0 mi SSW 6.9 mph - 0.00 in   Mostly Cloudy
8:54 PM 70.0 °F 66.0 °F 87% 30.02 in 10.0 mi SSW 5.8 mph - 0.00 in   Mostly Cloudy
9:54 PM 69.1 °F 64.9 °F 87% 30.01 in 10.0 mi South 5.8 mph - 0.00 in   Mostly Cloudy
10:13 PM 69.8 °F 64.4 °F 83% 30.01 in 10.0 mi South 6.9 mph - N/A   Overcast
10:18 PM 69.8 °F 66.2 °F 88% 30.01 in 10.0 mi South 6.9 mph - N/A   Overcast
10:54 PM 69.1 °F 66.9 °F 93% 30.00 in 10.0 mi South 10.4 mph - 0.01 in   Overcast
11:07 PM 69.8 °F 66.2 °F 88% 29.99 in 4.0 mi South 9.2 mph - 0.00 in Rain Light Rain
11:12 PM 69.8 °F 66.2 °F 88% 29.98 in 4.0 mi South 11.5 mph - 0.00 in Rain Light Rain
11:54 PM 69.1 °F 66.9 °F 93% 29.98 in 10.0 mi SSW 9.2 mph - 0.00 in   Overcast